FW4154 Weather Reports


time (UTC)temp
F
wind
direction
speed
knots
gust
knots
rain 1hr
in
rain 24hr
in
rain mn
in
humidity
%
barometer
mb
20260505122400 56 132 7.0 13.0 0.00 0.00 0.00 89 1000.2
20260505121402 56 153 8.7 12.2 0.00 0.00 0.00 89 1000.2
20260505120859 56 123 7.0 13.9 0.00 0.00 0.00 89 1000.2
20260505120353 56 151 10.4 13.0 0.00 0.00 0.00 90 1000.2
20260505115851 56 161 10.4 12.2 0.00 0.00 0.00 90 1000.2
20260505114906 56 142 8.7 13.0 0.00 0.00 0.00 91 1000.2
20260505114349 56 151 9.6 14.8 0.00 0.00 0.00 90 1000.2
20260505113358 56 136 9.6 13.9 0.00 0.00 0.00 91 1000.2
20260505112855 56 145 9.6 13.9 0.00 0.00 0.00 91 1000.2
20260505111904 56 167 9.6 13.0 0.00 0.00 0.00 91 1000.2
20260505111351 56 146 8.7 13.0 0.00 0.00 0.00 91 1000.2
20260505110851 56 157 10.4 13.0 0.00 0.00 0.00 91 1000.2
20260505101403 56 127 7.8 12.2 0.00 0.00 0.00 90 1000.2
20260505100900 56 144 7.0 11.3 0.00 0.00 0.00 91 1000.2
20260505100355 56 155 7.8 11.3 0.00 0.00 0.00 90 1000.2
20260505095355 56 138 7.0 10.4 0.00 0.00 0.00 90 1000.2
20260505094401 56 148 7.0 9.6 0.00 0.00 0.00 89 1000.2
20260505093405 56 143 7.0 8.7 0.00 0.00 0.00 90 1000.2
20260505092353 56 133 6.1 8.7 0.00 0.00 0.00 89 1000.2
20260505091402 57 153 7.0 11.3 0.00 0.00 0.00 89 1000.2
20260505090856 57 159 6.1 9.6 0.00 0.00 0.00 89 1000.2
20260505085900 57 159 6.1 8.7 0.00 0.00 0.00 89 1000.2
20260505084905 57 166 6.1 12.2 0.00 0.00 0.00 89 1000.2
20260505083904 57 151 6.1 9.6 0.00 0.00 0.00 89 1000.2
20260505082916 57 144 6.1 9.6 0.00 0.00 0.00 88 1000.2
20260505081852 58 188 6.1 10.4 0.00 0.00 0.00 88 1000.2
20260505080859 58 148 7.8 10.4 0.00 0.00 0.00 88 1000.2
20260505075905 58 147 7.0 10.4 0.00 0.00 0.00 87 1000.2
20260505075406 58 136 5.2 9.6 0.00 0.00 0.00 87 1000.2
20260505074845 58 146 7.8 9.6 0.00 0.00 0.00 87 1000.2
20260505073905 59 148 5.2 11.3 0.00 0.00 0.00 87 1000.2
20260505073404 59 172 7.8 11.3 0.00 0.00 0.00 87 1000.2
20260505072357 59 159 7.8 9.6 0.00 0.00 0.00 86 1000.2
20260505071356 59 150 7.8 12.2 0.00 0.00 0.00 86 1000.2
20260505070851 59 150 8.7 12.2 0.00 0.00 0.00 87 1000.2
20260505065918 60 163 8.7 9.6 0.00 0.00 0.00 86 1000.2
20260505065400 60 167 8.7 10.4 0.00 0.00 0.00 86 1000.2
20260505064406 60 154 9.6 13.0 0.00 0.00 0.00 84 1000.2
20260505063402 60 158 7.0 9.6 0.00 0.00 0.00 83 1000.2
20260505062852 61 169 5.2 9.6 0.00 0.00 0.00 83 1000.2
20260505061859 61 181 5.2 7.8 0.00 0.00 0.00 81 1000.2
20260505061354 61 216 1.7 6.1 0.00 0.00 0.00 79 1000.2
20260505060851 62 192 2.6 9.6 0.00 0.00 0.00 80 1000.2
20260505055907 63 172 4.3 7.8 0.00 0.00 0.00 79 1000.2
20260505054853 63 167 3.5 6.1 0.00 0.00 0.00 80 1000.2
20260505054350 62 166 1.7 5.2 0.00 0.00 0.00 82 1000.2
20260505053358 63 201 1.7 2.6 0.00 0.00 0.00 83 1000.2
20260505052404 63 224 1.7 5.2 0.00 0.00 0.00 81 1000.2
20260505051402 63 222 3.5 6.1 0.00 0.00 0.00 81 1000.2
20260505050409 64 192 5.2 7.8 0.00 0.00 0.00 80 1000.2
20260505041404 66 161 2.6 7.0 0.00 0.00 0.00 79 1000.2
20260505040903 66 158 4.3 7.0 0.00 0.00 0.00 78 1000.2
20260505035903 67 190 3.5 5.2 0.00 0.00 0.00 77 1000.2
20260505035401 67 218 0.9 5.2 0.00 0.00 0.00 72 1000.2
20260505034851 68 173 2.6 7.0 0.00 0.00 0.00 75 1000.2
20260505033910 68 167 4.3 6.1 0.00 0.00 0.00 71 1000.2
20260505032914 69 195 0.9 3.5 0.00 0.00 0.00 69 1000.2
20260505032400 68 195 1.7 3.5 0.00 0.00 0.00 67 1000.2
20260505031401 69 262 0.0 2.6 0.00 0.00 0.00 71 1000.2
20260505030359 71 281 0.9 4.3 0.00 0.00 0.00 64 1000.2
20260505025349 72 280 1.7 7.0 0.00 0.00 0.00 58 1000.2
20260505023902 73 286 2.6 7.0 0.00 0.00 0.00 57 1000.2
20260505022901 74 284 3.5 7.0 0.00 0.00 0.00 55 1000.2
20260505021900 74 271 3.5 7.8 0.00 0.00 0.00 56 1000.2
20260505021352 75 278 3.5 7.0 0.00 0.00 0.00 55 1000.2
20260505020348 75 274 3.5 7.0 0.00 0.00 0.00 55 1000.2
20260505015415 76 272 5.2 9.6 0.00 0.00 0.00 54 1000.2
20260505014859 75 254 2.6 7.8 0.00 0.00 0.00 59 1000.2
20260505013859 73 263 1.7 3.5 0.00 0.00 0.00 59 1000.2
20260505012902 72 265 0.9 3.5 0.00 0.00 0.00 62 1000.2
20260505012353 71 257 1.7 3.5 0.00 0.00 0.00 69 1000.2
20260505011406 71 184 1.7 3.5 0.00 0.00 0.00 69 1000.2
20260505010351 71 262 1.7 6.1 0.00 0.00 0.00 67 1000.2
20260505005404 69 218 0.9 3.5 0.00 0.00 0.00 73 1000.2
20260505004358 70 217 0.9 5.2 0.00 0.00 0.00 69 1000.2
20260505003850 69 224 2.6 7.0 0.00 0.00 0.00 71 1000.2
20260505002859 70 171 4.3 7.8 0.00 0.00 0.00 70 1000.2
20260505002353 71 153 6.1 7.8 0.00 0.00 0.00 67 1000.2
20260505001349 72 173 2.6 6.1 0.00 0.00 0.00 65 1000.2
20260505000407 72 211 3.5 6.1 0.00 0.00 0.00 62 1000.2
20260504235356 72 153 4.3 7.0 0.00 0.00 0.00 64 1000.2
20260504234402 73 150 4.3 7.8 0.00 0.00 0.00 60 1000.2
20260504233858 73 153 3.5 7.0 0.00 0.00 0.00 62 1000.2
20260504232914 72 170 5.2 7.0 0.00 0.00 0.00 64 1000.2
20260504231901 73 139 5.2 8.7 0.00 0.00 0.00 58 1000.2
20260504231350 72 141 7.0 9.6 0.00 0.00 0.00 62 1000.2
20260504230407 72 158 7.0 12.2 0.00 0.00 0.00 61 1000.2
20260504225358 72 161 7.0 9.6 0.00 0.00 0.00 57 1000.2
20260504224857 72 153 6.1 10.4 0.00 0.00 0.00 63 1000.2
20260504223858 72 150 7.0 9.6 0.00 0.00 0.00 59 1000.2
20260504223359 73 143 8.7 13.0 0.00 0.00 0.00 58 1000.2
20260504222856 72 139 7.8 11.3 0.00 0.00 0.00 60 1000.2
20260504221907 72 150 6.1 12.2 0.00 0.00 0.00 58 1000.2
20260504221359 72 137 7.8 12.2 0.00 0.00 0.00 61 1000.2
20260504220900 72 144 9.6 12.2 0.00 0.00 0.00 61 1000.2
20260504215905 72 148 8.7 12.2 0.00 0.00 0.00 61 1000.2
20260504215401 72 146 7.8 10.4 0.00 0.00 0.00 59 1000.2
20260504214851 72 138 8.7 12.2 0.00 0.00 0.00 60 1000.2
20260504214344 71 151 8.7 11.3 0.00 0.00 0.00 61 1000.2
20260504213353 71 158 6.1 8.7 0.00 0.00 0.00 61 1000.2
20260504212359 71 153 7.8 10.4 0.00 0.00 0.00 60 1000.2
20260504211400 71 161 5.2 7.8 0.00 0.00 0.00 61 1000.2
20260504210404 69 164 5.2 7.0 0.00 0.00 0.00 68 1000.2
20260504205850 70 169 5.2 7.0 0.00 0.00 0.00 67 1000.2
20260504204857 69 153 3.5 7.8 0.00 0.00 0.00 71 1000.2
20260504203900 69 174 2.6 5.2 0.00 0.00 0.00 71 1000.2
20260504203358 71 179 2.6 5.2 0.00 0.00 0.00 58 1000.2
20260504202857 69 208 0.9 3.5 0.00 0.00 0.00 67 1000.2
20260504201907 67 207 0.9 5.2 0.00 0.00 0.00 70 1000.2
20260504200855 68 219 2.6 4.3 0.00 0.00 0.00 68 1000.2
20260504195908 68 219 0.9 3.5 0.00 0.00 0.00 70 1000.2
20260504195357 67 219 1.7 3.5 0.00 0.00 0.00 73 1000.2
20260504194400 68 184 3.5 7.0 0.00 0.00 0.00 69 1000.2
20260504193854 69 157 5.2 7.8 0.00 0.00 0.00 66 1000.2
20260504192910 68 165 4.3 6.1 0.00 0.00 0.00 65 1000.2
20260504191855 66 223 2.6 4.3 0.00 0.00 0.00 75 1000.2
20260504190858 64 255 1.7 4.3 0.00 0.00 0.00 78 1000.2
20260504190348 64 239 2.6 4.3 0.00 0.00 0.00 78 1000.2
20260504185357 64 238 1.7 4.3 0.00 0.00 0.00 78 1000.2
20260504184856 65 248 2.6 5.2 0.00 0.00 0.00 77 1000.2
20260504183902 64 232 2.6 5.2 0.00 0.00 0.00 78 1000.2
20260504182855 63 236 4.3 6.1 0.00 0.00 0.00 78 1000.2
20260504182349 63 213 3.5 5.2 0.00 0.00 0.00 80 1000.2
20260504181353 63 221 3.5 7.8 0.00 0.00 0.00 81 1000.2
20260504180353 62 255 3.5 7.0 0.00 0.00 0.00 82 1000.2
20260504175405 62 252 3.5 6.1 0.00 0.00 0.00 81 1000.2
20260504174405 62 234 3.5 5.2 0.00 0.00 0.00 79 1000.2
20260504173840 62 250 2.6 4.3 0.00 0.00 0.00 82 1000.2
20260504173123 59 244 0.0 0.0 0.00 0.00 0.00 84 1000.2
20260504160355 57 222 0.0 0.0 0.00 0.00 0.00 87 1000.2
20260504150900 56 32 0.0 0.0 0.00 0.00 0.00 85 1000.2
20260504150350 56 32 0.0 0.0 0.00 0.00 0.00 86 1000.2
20260504130402 51 32 0.0 0.0 0.00 0.00 0.00 91 1000.2